When you browse on this site, cookies collect data to enhance your experience and personalize the content and advertising you see.
Visit our Privacy Policy to learn more. By continuing to use the site, you agree to this use of cookies and data.
  • In Lithuania
  • List of Countries
  • For 7 days
  • Water Temperature
  • Satellite Maps
  • Weather Map
  • Weather Widgets
  • user-avatar
    Login

    Hourly Weather Ganja

    Today, 26 March, Tuesday

    Time Temperature Precipitation Wind Pressure Humidity
    00:00 +4°C° 0.4 mm 3 mps 725 mmHg 78%
    01:00 +3°C° 0.2 mm 3 mps 725 mmHg 79%
    02:00 +3°C° 0.2 mm 3 mps 725 mmHg 80%
    03:00 +2°C° 0 mm 3 mps 725 mmHg 81%
    04:00 +3°C° 0.1 mm 2 mps 725 mmHg 82%
    05:00 +3°C° 0.1 mm 2 mps 725 mmHg 83%
    06:00 +3°C° 0.1 mm 2 mps 725 mmHg 84%
    07:00 +4°C° 0.1 mm 2 mps 725 mmHg 81%
    08:00 +4°C° 0.1 mm 2 mps 725 mmHg 78%
    09:00 +4°C° 0.1 mm 3 mps 725 mmHg 75%
    10:00 +5°C° 0.1 mm 3 mps 725 mmHg 72%
    11:00 +7°C° 0.1 mm 3 mps 724 mmHg 69%
    12:00 +7°C° 0.1 mm 3 mps 724 mmHg 66%
    13:00 +8°C° 0 mm 3 mps 724 mmHg 64%
    14:00 +9°C° 0 mm 3 mps 723 mmHg 62%
    15:00 +9°C° 0 mm 3 mps 723 mmHg 60%
    16:00 +9°C° 0 mm 2 mps 723 mmHg 62%
    17:00 +9°C° 0 mm 2 mps 723 mmHg 64%
    18:00 +8°C° 0 mm 2 mps 723 mmHg 66%
    19:00 +9°C° 0 mm 1 mps 723 mmHg 69%
    20:00 +8°C° 0 mm 1 mps 723 mmHg 71%
    21:00 +7°C° 0 mm 0 mps 724 mmHg 74%
    22:00 +6°C° 0 mm 0 mps 724 mmHg 75%
    23:00 +6°C° 0 mm 0 mps 723 mmHg 76%

    Tomorrow, 27 March, Wednesday

    Time Temperature Precipitation Wind Pressure Humidity
    00:00 +6°C° 0 mm 0 mps 723 mmHg 77%
    01:00 +6°C° 0 mm 0 mps 723 mmHg 78%
    02:00 +5°C° 0 mm 0 mps 723 mmHg 78%
    03:00 +5°C° 0 mm 0 mps 723 mmHg 79%
    04:00 +6°C° 0 mm 1 mps 723 mmHg 78%
    05:00 +6°C° 0 mm 1 mps 723 mmHg 77%
    06:00 +6°C° 0 mm 1 mps 723 mmHg 76%
    07:00 +7°C° 0 mm 2 mps 723 mmHg 71%
    08:00 +8°C° 0 mm 2 mps 722 mmHg 66%
    09:00 +10°C° 0 mm 2 mps 722 mmHg 60%
    10:00 +12°C° 0 mm 2 mps 722 mmHg 56%
    11:00 +12°C° 0 mm 3 mps 722 mmHg 52%
    12:00 +14°C° 0 mm 3 mps 721 mmHg 48%
    13:00 +16°C° 0 mm 3 mps 721 mmHg 45%
    14:00 +17°C° 0 mm 3 mps 721 mmHg 43%
    15:00 +17°C° 0 mm 3 mps 721 mmHg 41%
    16:00 +17°C° 0 mm 2 mps 721 mmHg 44%
    17:00 +16°C° 0 mm 1 mps 721 mmHg 48%
    18:00 +14°C° 0 mm 0 mps 721 mmHg 52%
    19:00 +15°C° 0 mm 1 mps 722 mmHg 52%
    20:00 +14°C° 0 mm 1 mps 723 mmHg 52%
    21:00 +13°C° 0 mm 2 mps 723 mmHg 53%
    22:00 +13°C° 0 mm 2 mps 723 mmHg 53%
    23:00 +12°C° 0 mm 2 mps 724 mmHg 53%

    Day after tomorrow, 28 March, Thursday

    Time Temperature Precipitation Wind Pressure Humidity
    00:00 +10°C° 0 mm 2 mps 724 mmHg 54%
    01:00 +10°C° 0 mm 3 mps 724 mmHg 55%
    02:00 +9°C° 0 mm 3 mps 724 mmHg 57%
    03:00 +9°C° 0 mm 3 mps 724 mmHg 58%
    04:00 +9°C° 0 mm 3 mps 724 mmHg 60%
    05:00 +8°C° 0 mm 3 mps 724 mmHg 61%
    06:00 +8°C° 0 mm 3 mps 725 mmHg 63%
    07:00 +9°C° 0 mm 3 mps 725 mmHg 58%
    08:00 +10°C° 0 mm 4 mps 725 mmHg 53%
    09:00 +12°C° 0 mm 4 mps 725 mmHg 48%
    10:00 +12°C° 0 mm 4 mps 725 mmHg 46%
    11:00 +13°C° 0 mm 4 mps 725 mmHg 45%
    12:00 +14°C° 0 mm 4 mps 724 mmHg 43%
    13:00 +14°C° 0.1 mm 4 mps 724 mmHg 44%
    14:00 +14°C° 0.1 mm 3 mps 724 mmHg 45%
    15:00 +14°C° 0.1 mm 3 mps 724 mmHg 45%
    16:00 +13°C° 0.3 mm 3 mps 724 mmHg 49%
    17:00 +12°C° 0.3 mm 3 mps 724 mmHg 52%
    18:00 +13°C° 0.3 mm 2 mps 724 mmHg 55%
    19:00 +12°C° 0.3 mm 2 mps 725 mmHg 57%
    20:00 +12°C° 0.3 mm 2 mps 725 mmHg 58%
    21:00 +10°C° 0.3 mm 2 mps 726 mmHg 60%
    22:00 +11°C° 0.5 mm 1 mps 726 mmHg 62%
    23:00 +10°C° 0.5 mm 1 mps 726 mmHg 65%

    29 March, Friday

    Time Temperature Precipitation Wind Pressure Humidity
    00:00 +9°C° 0.5 mm 1 mps 726 mmHg 67%
    01:00 +9°C° 0.2 mm 1 mps 726 mmHg 69%
    02:00 +9°C° 0.2 mm 1 mps 726 mmHg 70%
    03:00 +8°C° 0.2 mm 1 mps 726 mmHg 71%
    04:00 +8°C° 0.1 mm 1 mps 726 mmHg 71%
    05:00 +8°C° 0.1 mm 1 mps 726 mmHg 71%
    06:00 +8°C° 0.1 mm 1 mps 726 mmHg 71%
    07:00 +7°C° 0.1 mm 2 mps 726 mmHg 69%
    08:00 +8°C° 0.1 mm 2 mps 727 mmHg 67%
    09:00 +8°C° 0.1 mm 3 mps 727 mmHg 65%
    10:00 +8°C° 0.3 mm 3 mps 726 mmHg 65%
    11:00 +8°C° 0.3 mm 3 mps 726 mmHg 66%
    12:00 +8°C° 0.3 mm 3 mps 726 mmHg 66%
    13:00 +8°C° 0.2 mm 3 mps 726 mmHg 66%
    14:00 +8°C° 0.2 mm 3 mps 725 mmHg 67%
    15:00 +8°C° 0.2 mm 3 mps 725 mmHg 67%
    16:00 +8°C° 0.3 mm 2 mps 726 mmHg 69%
    17:00 +7°C° 0.3 mm 2 mps 726 mmHg 71%
    18:00 +7°C° 0.3 mm 2 mps 726 mmHg 73%
    19:00 +8°C° 0.4 mm 1 mps 727 mmHg 74%
    20:00 +8°C° 0.4 mm 1 mps 728 mmHg 75%
    21:00 +8°C° 0.4 mm 1 mps 728 mmHg 76%
    22:00 +7°C° 0.5 mm 1 mps 728 mmHg 78%
    23:00 +7°C° 0.5 mm 1 mps 728 mmHg 80%

    30 March, Saturday

    Time Temperature Precipitation Wind Pressure Humidity
    00:00 +7°C° 0.5 mm 1 mps 728 mmHg 82%
    01:00 +6°C° 0.4 mm 1 mps 728 mmHg 83%
    02:00 +6°C° 0.4 mm 1 mps 728 mmHg 85%
    03:00 +6°C° 0.4 mm 1 mps 728 mmHg 86%
    04:00 +6°C° 0.3 mm 1 mps 728 mmHg 87%
    05:00 +6°C° 0.3 mm 1 mps 729 mmHg 88%
    06:00 +5°C° 0.3 mm 1 mps 729 mmHg 90%
    07:00 +5°C° 0.3 mm 2 mps 729 mmHg 89%
    08:00 +5°C° 0.3 mm 2 mps 729 mmHg 88%
    09:00 +6°C° 0.3 mm 2 mps 730 mmHg 87%
    10:00 +5°C° 0.2 mm 3 mps 729 mmHg 85%
    11:00 +5°C° 0.2 mm 3 mps 729 mmHg 83%
    12:00 +6°C° 0.2 mm 4 mps 729 mmHg 81%
    13:00 +6°C° 0.1 mm 4 mps 729 mmHg 79%
    14:00 +7°C° 0.1 mm 4 mps 729 mmHg 77%
    15:00 +7°C° 0.1 mm 4 mps 728 mmHg 75%
    16:00 +8°C° 0 mm 3 mps 729 mmHg 76%
    17:00 +7°C° 0 mm 3 mps 729 mmHg 77%
    18:00 +7°C° 0 mm 3 mps 729 mmHg 78%
    19:00 +7°C° 0 mm 3 mps 729 mmHg 79%
    20:00 +5°C° 0 mm 3 mps 730 mmHg 80%
    21:00 +5°C° 0 mm 3 mps 730 mmHg 82%
    22:00 +5°C° 0 mm 3 mps 730 mmHg 83%
    23:00 +6°C° 0 mm 2 mps 730 mmHg 84%

    31 March, Sunday

    Time Temperature Precipitation Wind Pressure Humidity
    00:00 +5°C° 0 mm 2 mps 730 mmHg 86%
    01:00 +5°C° 0.2 mm 2 mps 729 mmHg 87%
    02:00 +5°C° 0.2 mm 2 mps 729 mmHg 88%
    03:00 +5°C° 0.2 mm 2 mps 728 mmHg 89%
    04:00 +5°C° 0 mm 2 mps 728 mmHg 89%
    05:00 +4°C° 0 mm 2 mps 728 mmHg 90%
    06:00 +4°C° 0 mm 2 mps 728 mmHg 90%
    07:00 +5°C° 0 mm 2 mps 728 mmHg 88%
    08:00 +4°C° 0 mm 3 mps 728 mmHg 87%
    09:00 +5°C° 0 mm 3 mps 727 mmHg 85%
    10:00 +7°C° 0 mm 3 mps 727 mmHg 82%
    11:00 +7°C° 0 mm 4 mps 726 mmHg 78%
    12:00 +8°C° 0 mm 4 mps 725 mmHg 74%
    13:00 +8°C° 0.1 mm 4 mps 725 mmHg 74%
    14:00 +8°C° 0.1 mm 4 mps 724 mmHg 74%
    15:00 +8°C° 0.1 mm 4 mps 723 mmHg 74%
    16:00 +8°C° 0.7 mm 4 mps 723 mmHg 77%
    17:00 +8°C° 0.7 mm 3 mps 723 mmHg 80%
    18:00 +8°C° 0.7 mm 3 mps 723 mmHg 83%
    19:00 +8°C° 0 mm 3 mps 723 mmHg 84%
    20:00 +8°C° 0 mm 3 mps 723 mmHg 84%
    21:00 +7°C° 0 mm 3 mps 723 mmHg 85%
    22:00 +7°C° 0 mm 3 mps 722 mmHg 86%
    23:00 +7°C° 0 mm 2 mps 722 mmHg 87%
    Show more